sat.trackr.live / text

‹ back to catalog

NINGXIA-1 5

NORAD 44783 · 2019-076E

PAYLOAD ACTIVE UNKNOWN

§ Identity

Operator
Country
PRC
Launch date
2019-11-13
Launch site
TAISC
Launch vehicle
Mass (kg)
RCS (m²)

External: N2YO · Heavens-Above · Gunter

§ Orbital elements

Epoch: 2026-09-10T04:51:21.790656Z

Period
102.70 min
Inclination
45.0046°
Eccentricity
0.0010434
Mean motion
14.02093550 rev/d
Perigee alt
879.0 km
Apogee alt
894.1 km
Semi-major
7,264.7 km
B*
-3.4957e-5
RAAN
159.2417°
Arg perigee
193.5788°
Mean anomaly
166.4767°
Rev number
34,970

§ Raw data

NINGXIA-1 51 44783U 19076E   26253.20233554 -.00000184  00000+0 -34957-4 0  99972 44783  45.0046 159.2417 0010434 193.5788 166.4767 14.02093550349708

JSON: /api/v1/satellites/44783 · /tle

For live sub-satellite position, see the globe view (requires WebGL).

§ Visibility from observer

Set your observer location to see the next 7 days of passes ≥ 10°. The values pass through the URL so the page stays shareable.

No JS? Fill the form by hand. The geolocation button needs JavaScript.

§ Radio — SatNOGS DB

ModeDescriptionDownlinkUplink
FM Mode S 2.271 GHz

1 transmitter · refreshed weekly from db.satnogs.org